This is the latest recevied weather packets stored in our database for station/object CE2LOH-10. If no packets are shown the sender has not sent any weather packets the latest 1 day(s).
| Time | Temp. | Humidity | Pressure | Rain* | Wind** | Luminosity | Snow |
|---|---|---|---|---|---|---|---|
| 1777917222 | 22.22° C | 30% | 992.2 hPa | - | - | - | - |
| 1777916322 | 21.67° C | 30% | 992.5 hPa | - | - | - | - |
| 1777915422 | 21.11° C | 30% | 992.8 hPa | - | - | - | - |
| 1777914522 | 21.11° C | 30% | 993.1 hPa | - | - | - | - |
| 1777913622 | 20.56° C | 30% | 993.3 hPa | - | - | - | - |
| 1777912722 | 20° C | 31% | 993.7 hPa | - | - | - | - |
| 1777911821 | 19.44° C | 31% | 993.8 hPa | - | - | - | - |
| 1777910921 | 19.44° C | 32% | 993.9 hPa | - | - | - | - |
| 1777910021 | 18.89° C | 32% | 994.1 hPa | - | - | - | - |
| 1777909121 | 18.33° C | 33% | 994.3 hPa | - | - | - | - |
| 1777908221 | 17.78° C | 33% | 994.1 hPa | - | - | - | - |
| 1777907321 | 17.22° C | 34% | 994.3 hPa | - | - | - | - |
| 1777906421 | 16.67° C | 34% | 994.5 hPa | - | - | - | - |
| 1777905521 | 16.11° C | 35% | 994.7 hPa | - | - | - | - |
| 1777904620 | 15.56° C | 35% | 994.8 hPa | - | - | - | - |
| 1777903720 | 15° C | 36% | 994.7 hPa | - | - | - | - |
| 1777902820 | 14.44° C | 36% | 994.8 hPa | - | - | - | - |
| 1777901920 | 13.89° C | 36% | 994.7 hPa | - | - | - | - |
| 1777901020 | 13.89° C | 36% | 994.6 hPa | - | - | - | - |
| 1777900120 | 13.33° C | 36% | 994.8 hPa | - | - | - | - |
| 1777899220 | 12.78° C | 36% | 994.8 hPa | - | - | - | - |
| 1777898320 | 12.22° C | 36% | 994.8 hPa | - | - | - | - |
| 1777897419 | 12.22° C | 35% | 994.8 hPa | - | - | - | - |
| 1777896519 | 12.22° C | 35% | 994.6 hPa | - | - | - | - |
| 1777895619 | 12.22° C | 36% | 994.4 hPa | - | - | - | - |
* Rain since midnight (hover to see other rain measurements)
** Current wind speed in m/s (hover to see current wind gust speed)